STARLINK-1679 (46557 NORAD) Tracking and Keplerian Element Data

This shows tracking and keplerian element data for the satellite.

Feedback or suggestion? Click here.




ElementValue
Catalog46557
NameSTARLINK-1679
Epoch Orbit187
Epoch Day336.91667824
Epoch Year2020
RAAN165.2394
Inclination53.0001
Eccentricity0.0002119
Argument of Perigee35.5682
Mean Anonmoly1.2527
Mean Motion15.62733433
Decay Rate0.00053345
L11 46557U 20070AB 20336.91667824 .00053345 00000-0 58501-3 0 9995
L22 46557 53.0001 165.2394 0002119 35.5682 1.2527 15.62733433 1870

Live tracking and technical data element details for STARLINK-1679 (NORAD 46557). STARLINK-1679 can be tracked NOW for your location showing map with azimuth and elevation plus other details from your city location.

Track the satellite on the map from your city or location and see movement details for azimuth, elevation, latitude, longitude, range, height, and movement on the map or in text.







IsCatalogInMostPopularTable: catalog: 46557, numindb: 15
Update: records affected: 1



GetName: 46557 STARLINK-1679

Hit Count: updated at: Wed, 02 Dec 2020 06:59:24 GMT